Powrót do katalogu

COSMOS 1579

AktywnyMilitariaLEO
NORAD 15085·PAYLOAD·🇷🇺 Russia

Wystrzelony Jun 29, 1984 z Baikonur Cosmodrome

Loading…

Następne Przeloty (najbliższe 24 godziny)

TLE

ŚwieżeSource: Space-Track

Epoka: Sep 14, 2026, 05:49 UTC

1 15085U 84069A   26257.24276171 -.00000077  00000-0  10111-4 0  9991
2 15085  65.0496 213.0106 0049455 343.5015  16.4435 13.86223534138127

Śledź COSMOS 1579 w czasie rzeczywistym z AllMySat

Download on the App Store